This is the latest recevied weather packets stored in our database for station/object 4S6DRJ-13. If no packets are shown the sender has not sent any weather packets the latest 10 day(s).
| Time | Temp. | Humidity | Pressure | Rain* | Wind** | Luminosity | Snow |
|---|---|---|---|---|---|---|---|
| 1788075937 | 31.11° C | 67% | 1009 hPa | 0 mm | 0.89 m/s, 226° | 891 W/m² | - |
| 1788075877 | 31.11° C | 67% | 1008.9 hPa | 0 mm | 1.34 m/s, 204° | 971 W/m² | - |
| 1788075815 | 31.11° C | 69% | 1009 hPa | 0 mm | 0.89 m/s, 39° | 961 W/m² | - |
| 1788075754 | 31.11° C | 68% | 1009 hPa | 0 mm | 2.24 m/s, 225° | 657 W/m² | - |
| 1788075693 | 31.11° C | 67% | 1008.8 hPa | 0 mm | 2.68 m/s, 21° | 967 W/m² | - |
| 1788075633 | 31.11° C | 67% | 1008.9 hPa | 0 mm | 2.68 m/s, 164° | 961 W/m² | - |
| 1788075571 | 31.11° C | 66% | 1008.9 hPa | 0 mm | 0.89 m/s, 304° | 969 W/m² | - |
| 1788075510 | 31.11° C | 66% | 1009 hPa | 0 mm | 1.79 m/s, 234° | 942 W/m² | - |
| 1788075449 | 31.11° C | 67% | 1009 hPa | 0 mm | 2.24 m/s, 256° | 945 W/m² | - |
| 1788075388 | 31.11° C | 67% | 1008.8 hPa | 0 mm | 1.79 m/s, 259° | 933 W/m² | - |
| 1788075327 | 31.11° C | 66% | 1009.2 hPa | 0 mm | 1.79 m/s, 292° | 955 W/m² | - |
| 1788075266 | 31.11° C | 65% | 1008.9 hPa | 0 mm | 0.89 m/s, 216° | 980 W/m² | - |
| 1788075213 | 31.11° C | 65% | 1009.2 hPa | 0 mm | 2.68 m/s, 192° | 972 W/m² | - |
| 1788075144 | 31.11° C | 67% | 1009.1 hPa | 0 mm | 1.79 m/s, 287° | 986 W/m² | - |
| 1788075084 | 31.11° C | 69% | 1009.1 hPa | 0 mm | 0.89 m/s, 187° | 1100 W/m² | - |
| 1788075021 | 31.11° C | 68% | 1009.2 hPa | 0 mm | 2.24 m/s, 214° | 970 W/m² | - |
| 1788074960 | 31.11° C | 68% | 1009.1 hPa | 0 mm | 1.79 m/s, 201° | 825 W/m² | - |
| 1788074900 | 31.11° C | 68% | 1009.3 hPa | 0 mm | 0.89 m/s, 321° | 728 W/m² | - |
| 1788074839 | 31.11° C | 67% | 1009.1 hPa | 0 mm | 2.68 m/s, 239° | 665 W/m² | - |
| 1788074777 | 31.11° C | 67% | 1009.2 hPa | 0 mm | 2.24 m/s, 164° | 542 W/m² | - |
| 1788074716 | 31.11° C | 67% | 1009.2 hPa | 0 mm | 0.89 m/s, 228° | 525 W/m² | - |
| 1788074655 | 31.11° C | 68% | 1009.1 hPa | 0 mm | 0.89 m/s, 91° | 522 W/m² | - |
| 1788074595 | 31.11° C | 68% | 1009.2 hPa | 0 mm | 1.79 m/s, 337° | 503 W/m² | - |
| 1788074534 | 30.56° C | 69% | 1009.3 hPa | 0 mm | 0.89 m/s, 78° | 475 W/m² | - |
| 1788074488 | 30.56° C | 68% | 1009.1 hPa | 0 mm | 1.34 m/s, 261° | 538 W/m² | - |
* Rain latest hour (hover to see other rain measurements)
** Current wind speed in m/s (hover to see current wind gust speed)